Total_Precipitation_Accumulation
0.00 0.00 0.02 0.05 0.02 0.02 0.03 0.04 0.05 0.05 0.08 0.09 0.14 0.11 0.15 0.10 0.00 0.00 0.00 0.00 0.00 0.00 0.00 0.00 0.02 0.02 0.03 0.03 0.02 0.01 0.01 0.01 0.02 0.02 0.03 0.06 0.09 0.05 0.02 0.01 0.01 0.01 0.02
0.00 0.00 0.03 0.07 0.06 0.01 0.06 0.11 0.05 0.03 0.03 0.08 0.15 0.15 0.22 0.23 0.02 0.00 0.00 0.01 0.00 0.01 0.00 0.01 0.04 0.03 0.05 0.01 0.01 0.02 0.02 0.03 0.02 0.02 0.02 0.03 0.03 0.01 0.00 0.00 0.02 0.02 0.03
0.00 0.00 0.01 0.05 0.11 0.09 0.10 0.15 0.16 0.06 0.02 0.03 0.12 0.18 0.13 0.15 0.09 0.03 0.03 0.06 0.02 0.01 0.01 0.01 0.02 0.02 0.02 0.01 0.01 0.00 0.01 0.03 0.01 0.02 0.01 0.00 0.00 0.01 0.05 0.16 0.22 0.21 0.23
0.00 0.00 0.00 0.01 0.03 0.09 0.10 0.12 0.15 0.16 0.07 0.03 0.06 0.08 0.06 0.05 0.09 0.04 0.06 0.08 0.02 0.01 0.01 0.01 0.02 0.01 0.01 0.01 0.00 0.00 0.00 0.01 0.03 0.02 0.00 0.02 0.07 0.30 0.38 0.28 0.20 0.18 0.16
0.00 0.00 0.00 0.00 0.02 0.02 0.10 0.13 0.08 0.15 0.23 0.10 0.07 0.17 0.12 0.08 0.10 0.07 0.10 0.13 0.03 0.01 0.03 0.02 0.01 0.01 0.02 0.01 0.01 0.02 0.01 0.01 0.00 0.00 0.01 0.09 0.28 0.50 0.27 0.10 0.06 0.05 0.05
0.00 0.00 0.00 0.00 0.01 0.05 0.05 0.11 0.16 0.11 0.17 0.31 0.11 0.12 0.24 0.18 0.15 0.12 0.16 0.15 0.09 0.02 0.03 0.02 0.00 0.01 0.02 0.02 0.01 0.01 0.00 0.00 0.01 0.01 0.05 0.20 0.18 0.18 0.05 0.02 0.01 0.00 0.00
0.00 0.00 0.00 0.01 0.04 0.08 0.09 0.09 0.16 0.26 0.23 0.34 0.35 0.14 0.17 0.26 0.28 0.19 0.16 0.20 0.18 0.04 0.01 0.00 0.00 0.01 0.02 0.05 0.03 0.02 0.00 0.00 0.03 0.03 0.11 0.13 0.08 0.03 0.00 0.00 0.00 0.00 0.00
0.00 0.00 0.00 0.01 0.02 0.03 0.07 0.15 0.19 0.22 0.29 0.30 0.37 0.39 0.29 0.35 0.34 0.20 0.16 0.20 0.21 0.08 0.01 0.00 0.00 0.00 0.01 0.05 0.02 0.02 0.01 0.02 0.04 0.05 0.12 0.07 0.01 0.01 0.00 0.00 0.00 0.00 0.00
0.00 0.00 0.00 0.02 0.03 0.03 0.08 0.15 0.20 0.23 0.27 0.26 0.27 0.36 0.43 0.32 0.26 0.19 0.16 0.16 0.20 0.09 0.02 0.00 0.00 0.00 0.01 0.02 0.01 0.01 0.02 0.03 0.05 0.04 0.06 0.03 0.00 0.00 0.00 0.00 0.00 0.00 0.01
0.00 0.00 0.01 0.04 0.06 0.06 0.10 0.14 0.20 0.18 0.25 0.24 0.16 0.16 0.11 0.16 0.19 0.28 0.12 0.12 0.19 0.30 0.12 0.02 0.00 0.01 0.02 0.01 0.02 0.01 0.01 0.01 0.04 0.02 0.00 0.01 0.00 0.00 0.00 0.00 0.02 0.04 0.05
0.00 0.00 0.00 0.00 0.02 0.10 0.16 0.18 0.22 0.24 0.25 0.27 0.19 0.10 0.06 0.04 0.06 0.11 0.12 0.05 0.07 0.24 0.27 0.09 0.02 0.03 0.02 0.01 0.00 0.00 0.00 0.00 0.00 0.01 0.00 0.00 0.00 0.00 0.01 0.05 0.05 0.05 0.05
0.00 0.00 0.00 0.01 0.07 0.16 0.16 0.19 0.21 0.26 0.27 0.18 0.13 0.14 0.08 0.04 0.06 0.07 0.11 0.08 0.07 0.11 0.20 0.18 0.11 0.06 0.01 0.00 0.00 0.00 0.00 0.00 0.00 0.00 0.00 0.00 0.00 0.00 0.06 0.06 0.05 0.06 0.05
0.00 0.00 0.00 0.00 0.05 0.18 0.24 0.22 0.22 0.21 0.24 0.26 0.16 0.16 0.16 0.16 0.17 0.16 0.17 0.19 0.15 0.07 0.15 0.13 0.10 0.09 0.01 0.00 0.00 0.00 0.00 0.00 0.00 0.00 0.00 0.00 0.00 0.02 0.10 0.07 0.06 0.04 0.06
0.00 0.00 0.00 0.00 0.02 0.14 0.43 0.32 0.33 0.25 0.23 0.23 0.19 0.17 0.17 0.18 0.20 0.17 0.16 0.13 0.15 0.12 0.09 0.07 0.01 0.00 0.01 0.00 0.00 0.00 0.00 0.00 0.00 0.00 0.00 0.00 0.01 0.09 0.13 0.05 0.04 0.05 0.06
0.00 0.00 0.00 0.00 0.00 0.21 0.51 0.92 0.83 0.79 0.56 0.47 0.38 0.25 0.18 0.15 0.17 0.21 0.21 0.18 0.18 0.15 0.15 0.09 0.02 0.00 0.00 0.01 0.00 0.00 0.00 0.00 0.00 0.00 0.00 0.00 0.02 0.15 0.19 0.05 0.03 0.10 0.08
0.00 0.00 0.00 0.00 0.01 0.16 0.48 0.88 1.12 1.13 1.01 0.66 0.54 0.68 0.45 0.20 0.13 0.14 0.20 0.21 0.19 0.18 0.20 0.13 0.05 0.01 0.01 0.00 0.00 0.00 0.00 0.00 0.00 0.00 0.00 0.00 0.03 0.13 0.21 0.10 0.06 0.07 0.11
0.00 0.00 0.00 0.00 0.00 0.11 0.30 0.50 0.68 0.99 1.19 1.10 0.57 0.45 0.51 0.40 0.20 0.11 0.10 0.15 0.21 0.20 0.22 0.25 0.21 0.10 0.04 0.03 0.00 0.00 0.00 0.00 0.00 0.00 0.00 0.00 0.01 0.05 0.14 0.14 0.07 0.02 0.11
0.00 0.00 0.00 0.00 0.01 0.03 0.19 0.29 0.31 0.66 0.86 1.00 0.90 0.49 0.40 0.37 0.44 0.27 0.16 0.11 0.15 0.28 0.29 0.19 0.19 0.27 0.21 0.09 0.03 0.00 0.00 0.00 0.00 0.00 0.00 0.00 0.00 0.02 0.05 0.12 0.10 0.02 0.04
0.00 0.00 0.00 0.00 0.00 0.01 0.05 0.18 0.27 0.55 0.82 0.89 0.88 0.69 0.42 0.27 0.38 0.45 0.36 0.23 0.21 0.24 0.26 0.44 0.40 0.19 0.20 0.22 0.18 0.09 0.01 0.00 0.00 0.00 0.00 0.00 0.00 0.01 0.01 0.02 0.05 0.03 0.01
0.07 0.04 0.01 0.01 0.01 0.01 0.02 0.09 0.23 0.42 0.74 0.86 0.79 0.72 0.43 0.37 0.26 0.45 0.43 0.39 0.39 0.36 0.36 0.39 0.45 0.51 0.30 0.24 0.26 0.29 0.23 0.05 0.01 0.00 0.00 0.00 0.00 0.00 0.01 0.01 0.01 0.00 0.00
0.16 0.14 0.09 0.05 0.01 0.02 0.02 0.05 0.11 0.26 0.44 0.61 0.78 0.68 0.47 0.39 0.36 0.31 0.46 0.41 0.40 0.52 0.42 0.35 0.43 0.50 0.48 0.40 0.34 0.37 0.31 0.16 0.06 0.01 0.00 0.00 0.01 0.00 0.01 0.01 0.00 0.00 0.00
0.22 0.17 0.13 0.08 0.05 0.05 0.03 0.03 0.03 0.12 0.24 0.39 0.47 0.66 0.64 0.41 0.36 0.40 0.33 0.43 0.40 0.37 0.50 0.48 0.41 0.43 0.59 0.42 0.26 0.33 0.43 0.37 0.21 0.06 0.01 0.01 0.00 0.01 0.01 0.00 0.00 0.00 0.00
0.06 0.27 0.42 0.26 0.28 0.16 0.14 0.06 0.04 0.07 0.15 0.22 0.34 0.39 0.56 0.63 0.48 0.41 0.37 0.34 0.39 0.39 0.34 0.38 0.40 0.29 0.30 0.38 0.33 0.19 0.28 0.30 0.20 0.08 0.03 0.02 0.01 0.00 0.01 0.01 0.00 0.00 0.00
0.12 0.26 0.64 0.37 0.53 0.44 0.28 0.26 0.14 0.08 0.10 0.14 0.19 0.19 0.23 0.44 0.53 0.55 0.45 0.36 0.34 0.35 0.36 0.29 0.27 0.31 0.22 0.27 0.40 0.27 0.15 0.09 0.09 0.10 0.07 0.08 0.05 0.02 0.00 0.00 0.00 0.00 0.00
0.14 0.17 0.44 0.56 0.63 0.51 0.44 0.40 0.40 0.29 0.16 0.21 0.20 0.18 0.12 0.19 0.32 0.51 0.58 0.49 0.38 0.31 0.31 0.35 0.26 0.25 0.26 0.19 0.26 0.25 0.16 0.10 0.06 0.08 0.08 0.06 0.04 0.06 0.06 0.02 0.00 0.00 0.00
0.11 0.14 0.34 0.71 0.54 0.56 0.59 0.51 0.45 0.47 0.38 0.32 0.23 0.22 0.15 0.10 0.18 0.32 0.45 0.52 0.44 0.40 0.34 0.31 0.31 0.26 0.20 0.21 0.20 0.19 0.17 0.12 0.06 0.04 0.09 0.12 0.09 0.06 0.03 0.01 0.00 0.00 0.00